STARLINK-32837, 62812

Orbit data source: Space-Track

STARLINK-32837, 62812 is a payload satellite owned by SpaceX/Seattle (US) in LEO that was launched on Fri, 24 Jan 2025 UTC via an FALCON 9 launch vehicle from the Air Force Western Test Range (AFWTR). Payload-class satellites include a variety of spacecraft equipped with specific instruments for various scientific and technological missions. These include communications satellites like Starlink; space stations such as the ISS; scientific satellites like the Hubble; Earth observation satellites from companies like Planet Labs, Umbra, and HawkEye 360; GPS; miniature CubeSats for education and research; and military/defense satellites.

Loading next visibility...
Identifier
62812, 2025-018G
Orbit
LEO
Last TLE update
12 hours ago
Origin
Manufacturer
SpaceX/Seattle
Mission
Operational Commercial Communications
Bus & Motor
STARLINK V2M, Unknown motor
Mass
730 kg wet, ~700 kg dry
Launch date (UTC)
2025-01-24 (5 months ago)
Launch vehicle
FALCON 9
Launch site
Air Force Western Test Range (AFWTR)
Object type
Payload
Rocket body
Debris
Shape & HBR
Box + 2 Pan, 29 m
Radar Cross Section
33.884 m², Large (>1 m²)

Expand to show TLE details & history

TLE from 12 hours ago
0 STARLINK-32837
1 62812U 25018G   25181.85609549  .00012803  00000-0  44350-3 0  9991
2 62812  53.1622  39.1976 0001057 124.3548 235.7553 15.30209964 24628
Epoch: 2025-06-30T20:32Z
TLE epoch observation values (Epoch: 2025-06-30T20:32:46.65Z)
Latitude
-0°
Longitude
171.84332°
Altitude
476.493 km
Speed
7.629 km/s
True Right ascension
02h 36m 47s
True Declination
0° 00' 00"
Sunlit
Object was in daylight at epoch
Visualization orbit readout
Latitude
-36.4413°
Longitude
22.90005°
Altitude
487.001 km
Speed
7.621 km/s
Apparent Right ascension
12h 53m 09s
Apparent Declination
-60° 29' 36"
Sunlit
Object is in full shadow
Visualization observer readout
Local Sidereal Time
20:08:42
Azimuth
219.505° SW
Elevation
-42.899°
Doppler factor
1
Orbital elements
Apogee altitude
476.166 km
Perigee altitude
474.717 km
Semi-major axis
6,853.578 km
Eccentricity
0.00011
Inclination
53.1622°
RAAN
39.1976°
Arg. of periapsis
124.3548°
True anomaly
Unknown
Mean anomaly
235.7553°
Eccentric anomaly
Unknown
Mean motion
3.82531 °/min
Orbital period
94.11 mins
BSTAR
0.0004435
Loading maneuver chart data...
Loading SW <> Apogee altitude chart data...
Loading historical data...
Loading historical data...
Loading historical data...
Loading historical data...
Loading historical data...
Loading historical data...
Loading historical data...

STARLINK-32837 Visibility forecast

Observer location: undefined°, undefined°

Span
Click to sort rows by Start time (UTC) header in descending order
Start Az.
Max El. time (UTC)
Max El. Az.
Max El.
End time (UTC)
End Az.
7 mins2025-07-01 17:05:34.261Z224.052° SW2025-07-01 17:08:34.261Z203.068° SW41.707°2025-07-01 17:12:34.261Z52.606° ENE
4 mins2025-07-01 22:03:34.261Z343.158° N2025-07-01 22:05:34.261Z17.993° NNE15.178°2025-07-01 22:07:34.261Z53.394° ENE
6 mins2025-07-01 23:41:34.261Z318.685° NNW2025-07-01 23:44:34.261Z79.93° E39.973°2025-07-01 23:47:34.261Z120.057° SE
|